When you browse on this site, cookies collect data to enhance your experience and personalize the content and advertising you see.
Visit our Privacy Policy to learn more. By continuing to use the site, you agree to this use of cookies and data.
  • In France
  • List of Countries
  • For 7 days
  • Water Temperature
  • Weather Map
  • Weather Widgets
  • user-avatar
    Login

    Hourly Weather Tarija

    Today, 21 August, Wednesday

    Time Temperature Precipitation Wind Pressure Humidity
    00:00 +10°C° 0 mm 0 mps 599 mmHg 60%
    01:00 +10°C° 0 mm 1 mps 599 mmHg 62%
    02:00 +10°C° 0 mm 1 mps 598 mmHg 63%
    03:00 +10°C° 0 mm 1 mps 598 mmHg 64%
    04:00 +9°C° 0 mm 1 mps 598 mmHg 65%
    05:00 +9°C° 0 mm 1 mps 598 mmHg 66%
    06:00 +10°C° 0 mm 1 mps 598 mmHg 61%
    07:00 +12°C° 0 mm 1 mps 599 mmHg 56%
    08:00 +13°C° 0 mm 1 mps 600 mmHg 51%
    09:00 +15°C° 0 mm 1 mps 601 mmHg 46%
    10:00 +18°C° 0 mm 1 mps 601 mmHg 41%
    11:00 +20°C° 0 mm 1 mps 602 mmHg 36%
    12:00 +20°C° 0 mm 2 mps 601 mmHg 34%
    13:00 +21°C° 0 mm 2 mps 601 mmHg 32%
    14:00 +22°C° 0 mm 3 mps 601 mmHg 30%
    15:00 +21°C° 0 mm 3 mps 600 mmHg 33%
    16:00 +21°C° 0 mm 3 mps 599 mmHg 36%
    17:00 +20°C° 0 mm 3 mps 599 mmHg 39%
    18:00 +18°C° 0 mm 2 mps 599 mmHg 44%
    19:00 +16°C° 0 mm 2 mps 598 mmHg 49%
    20:00 +14°C° 0 mm 1 mps 598 mmHg 54%
    21:00 +14°C° 0 mm 1 mps 598 mmHg 56%
    22:00 +13°C° 0 mm 1 mps 598 mmHg 58%
    23:00 +13°C° 0 mm 1 mps 598 mmHg 60%

    Tomorrow, 22 August, Thursday

    Time Temperature Precipitation Wind Pressure Humidity
    00:00 +13°C° 0 mm 2 mps 598 mmHg 61%
    01:00 +12°C° 0 mm 2 mps 598 mmHg 62%
    02:00 +12°C° 0 mm 2 mps 598 mmHg 63%
    03:00 +12°C° 0 mm 2 mps 597 mmHg 64%
    04:00 +12°C° 0 mm 2 mps 597 mmHg 66%
    05:00 +12°C° 0 mm 2 mps 597 mmHg 67%
    06:00 +13°C° 0 mm 2 mps 598 mmHg 61%
    07:00 +14°C° 0 mm 2 mps 599 mmHg 55%
    08:00 +16°C° 0 mm 1 mps 600 mmHg 49%
    09:00 +17°C° 0 mm 2 mps 601 mmHg 46%
    10:00 +18°C° 0 mm 2 mps 602 mmHg 43%
    11:00 +19°C° 0 mm 2 mps 602 mmHg 40%
    12:00 +20°C° 0 mm 3 mps 602 mmHg 40%
    13:00 +21°C° 0 mm 4 mps 602 mmHg 39%
    14:00 +21°C° 0 mm 4 mps 602 mmHg 39%
    15:00 +20°C° 0 mm 4 mps 601 mmHg 42%
    16:00 +19°C° 0 mm 4 mps 601 mmHg 46%
    17:00 +18°C° 0 mm 4 mps 601 mmHg 50%
    18:00 +16°C° 0 mm 3 mps 601 mmHg 54%
    19:00 +14°C° 0 mm 3 mps 601 mmHg 58%
    20:00 +13°C° 0 mm 2 mps 602 mmHg 63%
    21:00 +13°C° 0 mm 2 mps 602 mmHg 65%
    22:00 +12°C° 0 mm 2 mps 602 mmHg 68%
    23:00 +11°C° 0 mm 1 mps 602 mmHg 71%

    Day after tomorrow, 23 August, Friday

    Time Temperature Precipitation Wind Pressure Humidity
    00:00 +11°C° 0 mm 1 mps 601 mmHg 74%
    01:00 +10°C° 0 mm 1 mps 601 mmHg 76%
    02:00 +9°C° 0 mm 0 mps 600 mmHg 79%
    03:00 +9°C° 0 mm 0 mps 600 mmHg 80%
    04:00 +9°C° 0 mm 0 mps 600 mmHg 80%
    05:00 +9°C° 0 mm 1 mps 600 mmHg 81%
    06:00 +11°C° 0 mm 1 mps 600 mmHg 76%
    07:00 +12°C° 0 mm 1 mps 601 mmHg 71%
    08:00 +13°C° 0 mm 1 mps 602 mmHg 66%
    09:00 +15°C° 0 mm 1 mps 602 mmHg 60%
    10:00 +18°C° 0 mm 1 mps 603 mmHg 53%
    11:00 +20°C° 0 mm 1 mps 603 mmHg 46%
    12:00 +20°C° 0 mm 2 mps 603 mmHg 44%
    13:00 +21°C° 0 mm 2 mps 602 mmHg 41%
    14:00 +23°C° 0 mm 2 mps 602 mmHg 38%
    15:00 +22°C° 0 mm 3 mps 601 mmHg 41%
    16:00 +21°C° 0 mm 3 mps 600 mmHg 43%
    17:00 +20°C° 0 mm 3 mps 600 mmHg 46%
    18:00 +19°C° 0 mm 2 mps 600 mmHg 52%
    19:00 +17°C° 0 mm 2 mps 599 mmHg 58%
    20:00 +15°C° 0 mm 1 mps 599 mmHg 64%
    21:00 +15°C° 0 mm 1 mps 599 mmHg 65%
    22:00 +14°C° 0 mm 2 mps 599 mmHg 66%
    23:00 +14°C° 0 mm 2 mps 599 mmHg 67%

    24 August, Saturday

    Time Temperature Precipitation Wind Pressure Humidity
    00:00 +14°C° 0 mm 2 mps 598 mmHg 68%
    01:00 +13°C° 0 mm 2 mps 598 mmHg 70%
    02:00 +13°C° 0 mm 2 mps 597 mmHg 71%
    03:00 +13°C° 0 mm 2 mps 597 mmHg 70%
    04:00 +13°C° 0 mm 2 mps 597 mmHg 70%
    05:00 +13°C° 0 mm 2 mps 597 mmHg 70%
    06:00 +14°C° 0 mm 2 mps 597 mmHg 65%
    07:00 +16°C° 0 mm 2 mps 598 mmHg 60%
    08:00 +17°C° 0 mm 2 mps 599 mmHg 55%
    09:00 +19°C° 0 mm 2 mps 599 mmHg 48%
    10:00 +21°C° 0 mm 2 mps 600 mmHg 41%
    11:00 +24°C° 0 mm 2 mps 600 mmHg 35%
    12:00 +25°C° 0 mm 2 mps 600 mmHg 32%
    13:00 +26°C° 0 mm 3 mps 599 mmHg 30%
    14:00 +27°C° 0 mm 3 mps 598 mmHg 27%
    15:00 +26°C° 0 mm 3 mps 598 mmHg 31%
    16:00 +25°C° 0 mm 4 mps 597 mmHg 35%
    17:00 +23°C° 0 mm 4 mps 596 mmHg 38%
    18:00 +21°C° 0 mm 3 mps 596 mmHg 44%
    19:00 +20°C° 0 mm 2 mps 596 mmHg 51%
    20:00 +19°C° 0 mm 1 mps 596 mmHg 57%
    21:00 +19°C° 0 mm 1 mps 596 mmHg 57%
    22:00 +19°C° 0 mm 1 mps 597 mmHg 58%
    23:00 +18°C° 0 mm 1 mps 597 mmHg 59%

    25 August, Sunday

    Time Temperature Precipitation Wind Pressure Humidity
    00:00 +18°C° 0 mm 1 mps 596 mmHg 61%
    01:00 +15°C° 0 mm 0 mps 596 mmHg 64%
    02:00 +14°C° 0 mm 0 mps 595 mmHg 67%
    03:00 +14°C° 0 mm 0 mps 595 mmHg 68%
    04:00 +14°C° 0 mm 1 mps 595 mmHg 68%
    05:00 +14°C° 0 mm 1 mps 594 mmHg 69%
    06:00 +16°C° 0 mm 1 mps 595 mmHg 63%
    07:00 +18°C° 0 mm 1 mps 596 mmHg 57%
    08:00 +20°C° 0 mm 1 mps 597 mmHg 51%
    09:00 +21°C° 0 mm 1 mps 598 mmHg 44%
    10:00 +23°C° 0 mm 2 mps 599 mmHg 37%
    11:00 +25°C° 0 mm 2 mps 599 mmHg 30%
    12:00 +26°C° 0 mm 3 mps 599 mmHg 28%
    13:00 +27°C° 0 mm 4 mps 598 mmHg 26%
    14:00 +28°C° 0 mm 5 mps 598 mmHg 24%
    15:00 +26°C° 0.2 mm 5 mps 598 mmHg 30%
    16:00 +25°C° 0.2 mm 5 mps 597 mmHg 37%
    17:00 +23°C° 0.2 mm 5 mps 597 mmHg 44%
    18:00 +21°C° 1.1 mm 4 mps 597 mmHg 55%
    19:00 +18°C° 1.1 mm 3 mps 598 mmHg 66%
    20:00 +16°C° 1.1 mm 2 mps 598 mmHg 77%
    21:00 +16°C° 0.5 mm 2 mps 598 mmHg 79%
    22:00 +15°C° 0.5 mm 2 mps 599 mmHg 82%
    23:00 +15°C° 0.5 mm 2 mps 599 mmHg 84%

    26 August, Monday

    Time Temperature Precipitation Wind Pressure Humidity
    00:00 +15°C° 0.2 mm 2 mps 599 mmHg 83%
    01:00 +14°C° 0.2 mm 1 mps 599 mmHg 82%
    02:00 +14°C° 0.2 mm 1 mps 599 mmHg 81%
    03:00 +14°C° 0 mm 1 mps 599 mmHg 85%
    04:00 +13°C° 0 mm 1 mps 599 mmHg 88%
    05:00 +13°C° 0 mm 2 mps 599 mmHg 92%
    06:00 +13°C° 0.1 mm 1 mps 600 mmHg 91%
    07:00 +13°C° 0.1 mm 1 mps 600 mmHg 89%
    08:00 +13°C° 0.1 mm 1 mps 601 mmHg 88%
    09:00 +14°C° 0.1 mm 1 mps 601 mmHg 83%
    10:00 +15°C° 0.1 mm 1 mps 601 mmHg 77%
    11:00 +16°C° 0.1 mm 1 mps 602 mmHg 71%
    12:00 +17°C° 0.2 mm 2 mps 601 mmHg 67%
    13:00 +18°C° 0.2 mm 3 mps 601 mmHg 63%
    14:00 +18°C° 0.2 mm 3 mps 601 mmHg 59%
    15:00 +18°C° 0.3 mm 3 mps 600 mmHg 63%
    16:00 +17°C° 0.3 mm 3 mps 600 mmHg 66%
    17:00 +17°C° 0.3 mm 3 mps 600 mmHg 70%
    18:00 +16°C° 0.3 mm 2 mps 600 mmHg 75%
    19:00 +15°C° 0.3 mm 2 mps 600 mmHg 80%
    20:00 +14°C° 0.3 mm 1 mps 601 mmHg 84%
    21:00 +14°C° 0 mm 1 mps 601 mmHg 85%
    22:00 +13°C° 0 mm 1 mps 601 mmHg 86%
    23:00 +12°C° 0 mm 0 mps 601 mmHg 87%
    Show more